"read_dt","SO2 (ppb)","flags","PMT voltage (V)","lamp voltage (V)","lamp intensity (Hz)","internal temp (C)","react chamber temp (C)","sample flow (l/min)","pres (mmHg)","SO2 bkg (ppb)","SO2 coefficient"
2017-04-29 00:00:00,1780E-3,5C000400,-0724,0835,12098,030.7,045.5,0.215,751.9,01.17,0.508
2017-04-29 00:01:00,1789E-3,5C000400,-0724,0834,12083,030.7,045.5,0.215,751.9,01.17,0.508
2017-04-29 00:02:00,1690E-3,5C000400,-0724,0835,12061,030.8,045.5,0.215,751.8,01.17,0.508
2017-04-29 00:03:00,1742E-3,5C000400,-0724,0835,11924,030.8,045.5,0.215,751.9,01.17,0.508
2017-04-29 00:04:00,1769E-3,5C000400,-0724,0834,12167,030.8,045.5,0.215,751.9,01.17,0.508
2017-04-29 00:05:00,1675E-3,5C000400,-0724,0835,12023,030.8,045.5,0.215,751.9,01.17,0.508
2017-04-29 00:06:00,1690E-3,5C000400,-0724,0834,12117,030.8,045.5,0.215,751.9,01.17,0.508
2017-04-29 00:07:00,1795E-3,5C000400,-0724,0835,11924,030.8,045.5,0.215,751.9,01.17,0.508
2017-04-29 00:08:00,1702E-3,5C000400,-0724,0834,12237,030.8,045.5,0.215,751.9,01.17,0.508
2017-04-29 00:09:00,1666E-3,5C000400,-0724,0834,12188,030.8,045.5,0.215,751.9,01.17,0.508
2017-04-29 00:10:00,1677E-3,5C000400,-0724,0834,12138,030.8,045.5,0.215,751.8,01.17,0.508
2017-04-29 00:11:00,1744E-3,5C000400,-0724,0836,12057,030.8,045.5,0.216,751.8,01.17,0.508
2017-04-29 00:12:00,1836E-3,5C000400,-0724,0834,11983,030.8,045.5,0.215,751.8,01.17,0.508
2017-04-29 00:13:00,1831E-3,5C000400,-0724,0834,12115,030.8,045.5,0.215,751.8,01.17,0.508
2017-04-29 00:14:00,1685E-3,5C000400,-0724,0834,11921,030.8,045.5,0.215,751.8,01.17,0.508
2017-04-29 00:15:00,1660E-3,5C000400,-0724,0833,12049,030.8,045.5,0.215,751.9,01.17,0.508
2017-04-29 00:16:00,1822E-3,5C000400,-0724,0834,12053,030.8,045.5,0.215,751.9,01.17,0.508
2017-04-29 00:17:00,1740E-3,5C000400,-0724,0836,12051,030.8,045.5,0.215,751.9,01.17,0.508
2017-04-29 00:18:00,1687E-3,5C000400,-0724,0835,12124,030.8,045.5,0.215,751.9,01.17,0.508
2017-04-29 00:19:00,1718E-3,5C000400,-0724,0834,12126,030.8,045.5,0.215,751.8,01.17,0.508
2017-04-29 00:20:00,1594E-3,5C000400,-0724,0834,12017,030.8,045.5,0.215,751.9,01.17,0.508
2017-04-29 00:21:00,1892E-3,5C000400,-0724,0834,11969,030.8,045.5,0.215,751.9,01.17,0.508
2017-04-29 00:22:00,1800E-3,5C000400,-0724,0834,12051,030.8,045.5,0.215,751.9,01.17,0.508
2017-04-29 00:23:00,1793E-3,5C000400,-0724,0835,11987,030.8,045.5,0.215,751.9,01.17,0.508
2017-04-29 00:24:00,1711E-3,5C000400,-0724,0835,12004,030.8,045.5,0.215,751.9,01.17,0.508
2017-04-29 00:25:00,1855E-3,5C000400,-0724,0835,12114,030.8,045.5,0.215,751.8,01.17,0.508
2017-04-29 00:26:00,1688E-3,5C000400,-0724,0835,12184,030.8,045.5,0.215,751.9,01.17,0.508
2017-04-29 00:27:00,1773E-3,5C000400,-0724,0835,12042,030.8,045.5,0.215,752.0,01.17,0.508
2017-04-29 00:28:00,1700E-3,5C000400,-0724,0835,12059,030.8,045.5,0.215,751.9,01.17,0.508
2017-04-29 00:29:00,1859E-3,5C000400,-0724,0835,12042,030.8,045.5,0.215,751.9,01.17,0.508
2017-04-29 00:30:00,1778E-3,5C000400,-0724,0835,12159,030.8,045.5,0.215,751.9,01.17,0.508
2017-04-29 00:31:00,1690E-3,5C000400,-0724,0835,12018,030.8,045.5,0.215,751.9,01.17,0.508
2017-04-29 00:32:00,1875E-3,5C000400,-0724,0835,12071,030.8,045.5,0.215,751.9,01.17,0.508
2017-04-29 00:33:00,1767E-3,5C000400,-0724,0835,12226,030.8,045.5,0.215,751.9,01.17,0.508
2017-04-29 00:34:00,1593E-3,5C000400,-0724,0835,12099,030.8,045.5,0.215,751.9,01.17,0.508
2017-04-29 00:35:00,1713E-3,5C000400,-0724,0834,12083,030.8,045.5,0.215,751.9,01.17,0.508
2017-04-29 00:36:00,1764E-3,5C000400,-0724,0835,12152,030.8,045.5,0.215,751.9,01.17,0.508
2017-04-29 00:37:00,1661E-3,5C000400,-0724,0834,12035,030.8,045.5,0.215,751.9,01.17,0.508
2017-04-29 00:38:00,1716E-3,5C000400,-0724,0835,11969,030.8,045.5,0.215,752.0,01.17,0.508
2017-04-29 00:39:00,1614E-3,5C000400,-0724,0835,11992,030.8,045.5,0.215,751.9,01.17,0.508
2017-04-29 00:40:00,1657E-3,5C000400,-0724,0835,12008,030.8,045.5,0.215,751.9,01.17,0.508
2017-04-29 00:41:00,1703E-3,5C000400,-0724,0835,12030,030.8,045.5,0.215,752.0,01.17,0.508
2017-04-29 00:42:00,1729E-3,5C000400,-0724,0835,12178,030.8,045.5,0.215,751.9,01.17,0.508
2017-04-29 00:43:00,1661E-3,5C000400,-0724,0835,12178,030.8,045.5,0.215,751.8,01.17,0.508
2017-04-29 00:44:00,1795E-3,5C000400,-0724,0835,12051,030.9,045.5,0.215,751.9,01.17,0.508
2017-04-29 00:45:00,1789E-3,5C000400,-0724,0835,12167,030.8,045.5,0.214,751.8,01.17,0.508
2017-04-29 00:46:00,1785E-3,5C000400,-0724,0835,12051,030.8,045.5,0.215,751.9,01.17,0.508
2017-04-29 00:47:00,1828E-3,5C000400,-0724,0835,12054,030.9,045.5,0.215,751.9,01.17,0.508
2017-04-29 00:48:00,1719E-3,5C000400,-0724,0835,11970,030.8,045.5,0.215,751.8,01.17,0.508
2017-04-29 00:49:00,1718E-3,5C000400,-0724,0835,12145,030.8,045.5,0.215,751.9,01.17,0.508
2017-04-29 00:50:00,1671E-3,5C000400,-0724,0834,12034,030.8,045.5,0.215,751.9,01.17,0.508
2017-04-29 00:51:00,1761E-3,5C000400,-0724,0833,12057,030.8,045.5,0.215,751.9,01.17,0.508
2017-04-29 00:52:00,1773E-3,5C000400,-0724,0835,12129,030.8,045.5,0.215,751.9,01.17,0.508
2017-04-29 00:53:00,1898E-3,5C000400,-0724,0834,12012,030.9,045.5,0.215,751.9,01.17,0.508
2017-04-29 00:54:00,1780E-3,5C000400,-0724,0835,12127,030.9,045.5,0.215,751.9,01.17,0.508
2017-04-29 00:55:00,1643E-3,5C000400,-0724,0835,12068,030.9,045.5,0.215,751.9,01.17,0.508
2017-04-29 00:56:00,1778E-3,5C000400,-0724,0834,12057,030.8,045.5,0.215,751.9,01.17,0.508
2017-04-29 00:57:00,1718E-3,5C000400,-0724,0835,12130,030.9,045.5,0.215,751.9,01.17,0.508
2017-04-29 00:58:00,1737E-3,5C000400,-0724,0834,12141,030.9,045.5,0.215,751.9,01.17,0.508
2017-04-29 00:59:00,1712E-3,5C000400,-0724,0835,12049,030.9,045.5,0.215,751.9,01.17,0.508
2017-04-29 01:00:00,1807E-3,5C000400,-0724,0835,12216,030.9,045.5,0.215,751.9,01.17,0.508
2017-04-29 01:01:00,1757E-3,5C000400,-0724,0836,12140,030.9,045.5,0.215,751.9,01.17,0.508
2017-04-29 01:02:00,1755E-3,5C000400,-0724,0835,12155,030.9,045.5,0.215,751.9,01.17,0.508
2017-04-29 01:03:00,1695E-3,5C000400,-0724,0835,12107,030.9,045.5,0.215,751.9,01.17,0.508
2017-04-29 01:04:00,1760E-3,5C000400,-0724,0835,12003,030.9,045.5,0.215,751.9,01.17,0.508
2017-04-29 01:05:00,1719E-3,5C000400,-0724,0835,12189,030.9,045.5,0.215,751.9,01.17,0.508
2017-04-29 01:06:00,1714E-3,5C000400,-0724,0836,11944,030.9,045.5,0.215,751.9,01.17,0.508
2017-04-29 01:07:00,1630E-3,5C000400,-0724,0835,12139,030.9,045.5,0.215,751.9,01.17,0.508
2017-04-29 01:08:00,1724E-3,5C000400,-0724,0835,12011,030.9,045.5,0.215,751.8,01.17,0.508
2017-04-29 01:09:00,1683E-3,5C000400,-0724,0834,12112,030.9,045.5,0.215,751.9,01.17,0.508
2017-04-29 01:10:00,1811E-3,5C000400,-0724,0835,12149,030.9,045.5,0.215,751.8,01.17,0.508
2017-04-29 01:11:00,1612E-3,5C000400,-0724,0835,12052,030.9,045.5,0.215,751.8,01.17,0.508
2017-04-29 01:12:00,1799E-3,5C000400,-0724,0835,11974,030.9,045.5,0.215,751.9,01.17,0.508
2017-04-29 01:13:00,1772E-3,5C000400,-0724,0835,12118,030.9,045.5,0.215,751.9,01.17,0.508
2017-04-29 01:14:00,1789E-3,5C000400,-0724,0835,12013,030.9,045.5,0.215,751.9,01.17,0.508
2017-04-29 01:15:00,1725E-3,5C000400,-0724,0835,11860,030.9,045.5,0.214,751.9,01.17,0.508
2017-04-29 01:16:00,1763E-3,5C000400,-0724,0835,12117,030.9,045.5,0.215,751.9,01.17,0.508
2017-04-29 01:17:00,1780E-3,5C000400,-0724,0835,12090,030.9,045.5,0.215,751.9,01.17,0.508
2017-04-29 01:18:00,1640E-3,5C000400,-0724,0835,12115,030.9,045.6,0.215,751.9,01.17,0.508
2017-04-29 01:19:00,1755E-3,5C000400,-0724,0835,12030,030.9,045.5,0.215,751.9,01.17,0.508
2017-04-29 01:20:00,1711E-3,5C000400,-0724,0836,11989,030.9,045.5,0.215,751.9,01.17,0.508
2017-04-29 01:21:00,1760E-3,5C000400,-0724,0835,12086,030.9,045.5,0.215,751.9,01.17,0.508
2017-04-29 01:22:00,1942E-3,5C000400,-0724,0835,12045,030.9,045.5,0.214,751.9,01.17,0.508
2017-04-29 01:23:00,1901E-3,5C000400,-0724,0835,12160,030.9,045.5,0.215,751.9,01.17,0.508
2017-04-29 01:24:00,1817E-3,5C000400,-0724,0835,12111,030.9,045.5,0.215,751.9,01.17,0.508
2017-04-29 01:25:00,1779E-3,5C000400,-0724,0835,12044,030.9,045.5,0.215,751.9,01.17,0.508
2017-04-29 01:26:00,1693E-3,5C000400,-0724,0835,12118,030.9,045.5,0.214,751.9,01.17,0.508
2017-04-29 01:27:00,1768E-3,5C000400,-0724,0835,12104,030.9,045.5,0.215,751.9,01.17,0.508
2017-04-29 01:28:00,1760E-3,5C000400,-0724,0835,12027,030.9,045.5,0.215,751.9,01.17,0.508
2017-04-29 01:29:00,1743E-3,5C000400,-0724,0835,12149,030.9,045.5,0.215,751.9,01.17,0.508
2017-04-29 01:30:00,1727E-3,5C000400,-0724,0834,12234,030.9,045.5,0.214,751.9,01.17,0.508
2017-04-29 01:31:00,1676E-3,5C000400,-0724,0835,12184,030.9,045.5,0.215,751.9,01.17,0.508
2017-04-29 01:32:00,1722E-3,5C000400,-0724,0835,12168,030.9,045.5,0.215,751.9,01.17,0.508
2017-04-29 01:33:00,1626E-3,5C000400,-0724,0835,12102,030.9,045.5,0.215,751.9,01.17,0.508
2017-04-29 01:34:00,1763E-3,5C000400,-0724,0834,12034,030.9,045.6,0.214,751.8,01.17,0.508
2017-04-29 01:35:00,1772E-3,5C000400,-0724,0835,12124,030.9,045.5,0.215,751.8,01.17,0.508
2017-04-29 01:36:00,1775E-3,5C000400,-0724,0835,12088,030.9,045.5,0.215,751.9,01.17,0.508
2017-04-29 01:37:00,1852E-3,5C000400,-0724,0835,12127,030.9,045.5,0.215,751.9,01.17,0.508
2017-04-29 01:38:00,1844E-3,5C000400,-0724,0835,12072,030.9,045.5,0.215,751.9,01.17,0.508
2017-04-29 01:39:00,1679E-3,5C000400,-0724,0834,12089,031.0,045.5,0.215,751.9,01.17,0.508
2017-04-29 01:40:00,1804E-3,5C000400,-0724,0835,12148,030.9,045.5,0.215,751.9,01.17,0.508
2017-04-29 01:41:00,1758E-3,5C000400,-0724,0834,12086,030.9,045.5,0.215,751.9,01.17,0.508
2017-04-29 01:42:00,1831E-3,5C000400,-0724,0834,12143,031.0,045.5,0.214,751.9,01.17,0.508
2017-04-29 01:43:00,1905E-3,5C000400,-0724,0833,12068,031.0,045.5,0.215,751.9,01.17,0.508
2017-04-29 01:44:00,1821E-3,5C000400,-0724,0835,12074,031.0,045.5,0.215,751.9,01.17,0.508
2017-04-29 01:45:00,1721E-3,5C000400,-0724,0834,12147,030.9,045.5,0.215,751.8,01.17,0.508
2017-04-29 01:46:00,1654E-3,5C000400,-0724,0835,12113,031.0,045.6,0.214,751.9,01.17,0.508
2017-04-29 01:47:00,1821E-3,5C000400,-0724,0835,12151,031.0,045.5,0.215,751.9,01.17,0.508
2017-04-29 01:48:00,1875E-3,5C000400,-0724,0836,12031,031.0,045.5,0.215,751.9,01.17,0.508
2017-04-29 01:49:00,1723E-3,5C000400,-0724,0835,11995,031.0,045.5,0.215,751.9,01.17,0.508
2017-04-29 01:50:00,1784E-3,5C000400,-0724,0834,12069,031.0,045.5,0.214,751.9,01.17,0.508
2017-04-29 01:51:00,1677E-3,5C000400,-0724,0835,12200,031.0,045.5,0.215,751.9,01.17,0.508
2017-04-29 01:52:00,1839E-3,5C000400,-0724,0834,12012,031.0,045.5,0.215,751.8,01.17,0.508
2017-04-29 01:53:00,1812E-3,5C000400,-0724,0834,12185,031.0,045.5,0.215,751.9,01.17,0.508
2017-04-29 01:54:00,1638E-3,5C000400,-0724,0835,11954,031.0,045.5,0.214,751.8,01.17,0.508
2017-04-29 01:55:00,1697E-3,5C000400,-0724,0834,12117,031.0,045.6,0.215,751.8,01.17,0.508
2017-04-29 01:56:00,1796E-3,5C000400,-0724,0835,11948,031.0,045.5,0.215,751.8,01.17,0.508
2017-04-29 01:57:00,1860E-3,5C000400,-0724,0834,12100,031.0,045.5,0.215,751.8,01.17,0.508
2017-04-29 01:58:00,1702E-3,5C000400,-0724,0835,12114,031.0,045.5,0.214,751.9,01.17,0.508
2017-04-29 01:59:00,1695E-3,5C000400,-0724,0835,12085,031.0,045.5,0.215,751.8,01.17,0.508
2017-04-29 02:00:00,1785E-3,5C000400,-0724,0835,12012,031.0,045.5,0.215,751.8,01.17,0.508
2017-04-29 02:01:00,1755E-3,5C000400,-0724,0836,12180,031.0,045.5,0.215,751.9,01.17,0.508
2017-04-29 02:02:00,1745E-3,5C000400,-0724,0834,12025,031.0,045.5,0.215,751.9,01.17,0.508
2017-04-29 02:03:00,1712E-3,5C000400,-0724,0835,12100,031.0,045.6,0.214,751.8,01.17,0.508
2017-04-29 02:04:00,1713E-3,5C000400,-0724,0835,11978,031.0,045.5,0.215,751.9,01.17,0.508
2017-04-29 02:05:00,1795E-3,5C000400,-0724,0835,11997,031.0,045.5,0.215,751.9,01.17,0.508
2017-04-29 02:06:00,1674E-3,5C000400,-0724,0835,12069,031.0,045.5,0.214,751.9,01.17,0.508
2017-04-29 02:07:00,1788E-3,5C000400,-0724,0835,12109,031.0,045.5,0.214,751.9,01.17,0.508
2017-04-29 02:08:00,1743E-3,5C000400,-0724,0836,12142,031.0,045.5,0.215,751.9,01.17,0.508
2017-04-29 02:09:00,1686E-3,5C000400,-0724,0835,12116,031.0,045.5,0.215,751.9,01.17,0.508
2017-04-29 02:10:00,1754E-3,5C000400,-0724,0834,11950,031.0,045.5,0.215,751.8,01.17,0.508
2017-04-29 02:11:00,1840E-3,5C000400,-0724,0834,12077,031.1,045.5,0.215,751.8,01.17,0.508
2017-04-29 02:12:00,1777E-3,5C000400,-0724,0834,12104,031.0,045.5,0.215,751.8,01.17,0.508
2017-04-29 02:13:00,1783E-3,5C000400,-0724,0836,12089,031.0,045.5,0.215,751.8,01.17,0.508
2017-04-29 02:14:00,1800E-3,5C000400,-0724,0835,11994,031.1,045.5,0.215,751.9,01.17,0.508
2017-04-29 02:15:00,1914E-3,5C000400,-0724,0835,11868,031.1,045.5,0.215,751.9,01.17,0.508
2017-04-29 02:16:00,1855E-3,5C000400,-0724,0835,11899,031.1,045.5,0.214,751.9,01.17,0.508
2017-04-29 02:17:00,1791E-3,5C000400,-0724,0836,12065,031.1,045.5,0.214,751.9,01.17,0.508
2017-04-29 02:18:00,1812E-3,5C000400,-0724,0835,12209,031.1,045.5,0.215,751.9,01.17,0.508
2017-04-29 02:19:00,1914E-3,5C000400,-0724,0836,12126,031.1,045.5,0.215,751.9,01.17,0.508
2017-04-29 02:20:00,1577E-3,5C000400,-0724,0835,12058,031.1,045.5,0.214,751.9,01.17,0.508
2017-04-29 02:21:00,1704E-3,5C000400,-0724,0834,12093,031.1,045.5,0.214,752.0,01.17,0.508
2017-04-29 02:22:00,1701E-3,5C000400,-0724,0836,12015,031.1,045.5,0.214,752.0,01.17,0.508
2017-04-29 02:23:00,1746E-3,5C000400,-0724,0836,11954,031.1,045.6,0.215,752.0,01.17,0.508
2017-04-29 02:24:00,1746E-3,5C000400,-0724,0835,12090,031.1,045.5,0.215,751.9,01.17,0.508
2017-04-29 02:25:00,1794E-3,5C000400,-0724,0835,12187,031.1,045.5,0.214,752.0,01.17,0.508
2017-04-29 02:26:00,1829E-3,5C000400,-0724,0836,12080,031.1,045.6,0.214,752.0,01.17,0.508
2017-04-29 02:27:00,1649E-3,5C000400,-0724,0835,12059,031.1,045.6,0.214,752.0,01.17,0.508
2017-04-29 02:28:00,1714E-3,5C000400,-0724,0835,11916,031.1,045.6,0.215,752.0,01.17,0.508
2017-04-29 02:29:00,1696E-3,5C000400,-0724,0835,12022,031.1,045.5,0.214,751.9,01.17,0.508
2017-04-29 02:30:00,1799E-3,5C000400,-0724,0835,12084,031.1,045.5,0.214,752.0,01.17,0.508
2017-04-29 02:31:00,1675E-3,5C000400,-0724,0835,12067,031.1,045.5,0.214,752.0,01.17,0.508
2017-04-29 02:32:00,1767E-3,5C000400,-0724,0836,12116,031.1,045.5,0.214,751.9,01.17,0.508
2017-04-29 02:33:00,1660E-3,5C000400,-0724,0835,12089,031.1,045.5,0.215,751.9,01.17,0.508
2017-04-29 02:34:00,1755E-3,5C000400,-0724,0835,12170,031.1,045.6,0.214,751.9,01.17,0.508
2017-04-29 02:35:00,1677E-3,5C000400,-0724,0835,12101,031.2,045.5,0.214,751.9,01.17,0.508
2017-04-29 02:36:00,1737E-3,5C000400,-0724,0835,12118,031.2,045.5,0.214,751.9,01.17,0.508
2017-04-29 02:37:00,1786E-3,5C000400,-0724,0835,12128,031.1,045.6,0.214,751.9,01.17,0.508
2017-04-29 02:38:00,1659E-3,5C000400,-0724,0835,12043,031.2,045.5,0.214,751.9,01.17,0.508
2017-04-29 02:39:00,1780E-3,5C000400,-0724,0835,11886,031.2,045.5,0.214,751.9,01.17,0.508
2017-04-29 02:40:00,1648E-3,5C000400,-0724,0836,12172,031.2,045.6,0.214,751.9,01.17,0.508
2017-04-29 02:41:00,1706E-3,5C000400,-0724,0835,12076,031.2,045.6,0.214,751.9,01.17,0.508
2017-04-29 02:42:00,1742E-3,5C000400,-0724,0835,12127,031.2,045.6,0.214,751.9,01.17,0.508
2017-04-29 02:43:00,1763E-3,5C000400,-0724,0835,12020,031.2,045.5,0.214,751.9,01.17,0.508
2017-04-29 02:44:00,1759E-3,5C000400,-0724,0836,12072,031.2,045.5,0.214,751.9,01.17,0.508
2017-04-29 02:45:00,1740E-3,5C000400,-0724,0835,12090,031.2,045.5,0.214,751.9,01.17,0.508
2017-04-29 02:46:00,1665E-3,5C000400,-0724,0835,11964,031.2,045.5,0.214,751.9,01.17,0.508
2017-04-29 02:47:00,1700E-3,5C000400,-0724,0835,12200,031.2,045.5,0.214,751.9,01.17,0.508
2017-04-29 02:48:00,1705E-3,5C000400,-0724,0835,12046,031.2,045.5,0.214,751.9,01.17,0.508
2017-04-29 02:49:00,1688E-3,5C000400,-0724,0834,12120,031.2,045.5,0.214,751.9,01.17,0.508
2017-04-29 02:50:00,1729E-3,5C000400,-0724,0835,12153,031.1,045.5,0.214,751.9,01.17,0.508
2017-04-29 02:51:00,1729E-3,5C000400,-0724,0836,12058,031.1,045.5,0.214,752.0,01.17,0.508
2017-04-29 02:52:00,1664E-3,5C000400,-0724,0835,12055,031.0,045.5,0.214,752.0,01.17,0.508
2017-04-29 02:53:00,1728E-3,5C000400,-0724,0835,12090,030.8,045.5,0.214,752.0,01.17,0.508
2017-04-29 02:54:00,1783E-3,5C000400,-0724,0835,12179,030.6,045.5,0.214,752.0,01.17,0.508
2017-04-29 02:55:00,1755E-3,5C000400,-0724,0834,12157,030.4,045.5,0.214,752.0,01.17,0.508
2017-04-29 02:56:00,1715E-3,5C000400,-0724,0835,12008,030.2,045.5,0.214,752.0,01.17,0.508
2017-04-29 02:57:00,1709E-3,5C000400,-0724,0835,12034,030.0,045.5,0.215,752.0,01.17,0.508
2017-04-29 02:58:00,1703E-3,5C000400,-0724,0834,12158,029.9,045.5,0.215,752.0,01.17,0.508
2017-04-29 02:59:00,1770E-3,5C000400,-0724,0834,12150,029.8,045.5,0.215,752.0,01.17,0.508
2017-04-29 03:00:00,1791E-3,5C000400,-0724,0834,12049,029.7,045.5,0.215,752.0,01.17,0.508
2017-04-29 03:01:00,1765E-3,5C000400,-0724,0834,12107,029.6,045.5,0.216,752.0,01.17,0.508
2017-04-29 03:02:00,1839E-3,5C000400,-0724,0834,12073,029.6,045.5,0.216,752.0,01.17,0.508
2017-04-29 03:03:00,1736E-3,5C000400,-0724,0835,12158,029.6,045.5,0.216,752.0,01.17,0.508
2017-04-29 03:04:00,1653E-3,5C000400,-0724,0834,12086,029.7,045.5,0.217,752.0,01.17,0.508
2017-04-29 03:05:00,1820E-3,5C000400,-0724,0835,12094,029.7,045.5,0.217,752.0,01.17,0.508
2017-04-29 03:06:00,1784E-3,5C000400,-0724,0834,12220,029.8,045.5,0.217,752.0,01.17,0.508
2017-04-29 03:07:00,1867E-3,5C000400,-0724,0835,12201,029.8,045.5,0.217,752.0,01.17,0.508
2017-04-29 03:08:00,1829E-3,5C000400,-0724,0834,12110,029.8,045.5,0.217,752.0,01.17,0.508
2017-04-29 03:09:00,1879E-3,5C000400,-0724,0835,12100,029.9,045.5,0.217,752.0,01.17,0.508
2017-04-29 03:10:00,1751E-3,5C000400,-0724,0835,12039,029.9,045.5,0.217,752.0,01.17,0.508
2017-04-29 03:11:00,1780E-3,5C000400,-0724,0836,12104,030.0,045.5,0.218,751.9,01.17,0.508
2017-04-29 03:12:00,1776E-3,5C000400,-0724,0835,12043,030.0,045.5,0.217,751.9,01.17,0.508
2017-04-29 03:13:00,1732E-3,5C000400,-0724,0835,12041,030.1,045.5,0.217,751.8,01.17,0.508
2017-04-29 03:14:00,1747E-3,5C000400,-0724,0835,12157,030.1,045.5,0.217,752.3,01.17,0.508
2017-04-29 03:15:00,1861E-3,5C000400,-0724,0834,11788,030.1,045.5,0.217,752.0,01.17,0.508
2017-04-29 03:16:00,1849E-3,5C000400,-0724,0835,12108,030.2,045.5,0.217,752.0,01.17,0.508
2017-04-29 03:17:00,1613E-3,5C000400,-0724,0835,12111,030.2,045.5,0.217,752.0,01.17,0.508
2017-04-29 03:18:00,1772E-3,5C000400,-0724,0835,12100,030.2,045.5,0.217,752.0,01.17,0.508
2017-04-29 03:19:00,1678E-3,5C000400,-0724,0835,11937,030.3,045.5,0.217,752.0,01.17,0.508
2017-04-29 03:20:00,1760E-3,5C000400,-0724,0835,12166,030.3,045.5,0.216,752.0,01.17,0.508
2017-04-29 03:21:00,1911E-3,5C000400,-0724,0835,12094,030.3,045.5,0.216,751.9,01.17,0.508
2017-04-29 03:22:00,1752E-3,5C000400,-0724,0835,12079,030.4,045.5,0.216,752.0,01.17,0.508
2017-04-29 03:23:00,1777E-3,5C000400,-0724,0835,12120,030.4,045.5,0.216,752.0,01.17,0.508
2017-04-29 03:24:00,1792E-3,5C000400,-0724,0835,12122,030.4,045.5,0.216,752.0,01.17,0.508
2017-04-29 03:25:00,1718E-3,5C000400,-0724,0835,12182,030.5,045.5,0.216,752.0,01.17,0.508
2017-04-29 03:26:00,1866E-3,5C000400,-0724,0835,12117,030.5,045.5,0.216,752.0,01.17,0.508
2017-04-29 03:27:00,1696E-3,5C000400,-0724,0835,12150,030.5,045.5,0.216,752.0,01.17,0.508
2017-04-29 03:28:00,1784E-3,5C000400,-0724,0836,12183,030.5,045.5,0.216,752.0,01.17,0.508
2017-04-29 03:29:00,1750E-3,5C000400,-0724,0835,12070,030.5,045.5,0.216,752.0,01.17,0.508
2017-04-29 03:30:00,1809E-3,5C000400,-0724,0835,12054,030.6,045.5,0.216,752.0,01.17,0.508
2017-04-29 03:31:00,1724E-3,5C000400,-0724,0836,12175,030.6,045.5,0.216,752.0,01.17,0.508
2017-04-29 03:32:00,1796E-3,5C000400,-0724,0835,11989,030.6,045.5,0.216,752.0,01.17,0.508
2017-04-29 03:33:00,1707E-3,5C000400,-0724,0835,12087,030.7,045.5,0.215,752.0,01.17,0.508
2017-04-29 03:34:00,1801E-3,5C000400,-0724,0836,12191,030.7,045.5,0.216,752.0,01.17,0.508
2017-04-29 03:35:00,1728E-3,5C000400,-0724,0835,12177,030.7,045.5,0.216,752.0,01.17,0.508
2017-04-29 03:36:00,1755E-3,5C000400,-0724,0835,12146,030.7,045.5,0.215,752.0,01.17,0.508
2017-04-29 03:37:00,1786E-3,5C000400,-0724,0835,12043,030.8,045.5,0.215,752.0,01.17,0.508
2017-04-29 03:38:00,1632E-3,5C000400,-0724,0835,12138,030.8,045.5,0.215,752.0,01.17,0.508
2017-04-29 03:39:00,1739E-3,5C000400,-0724,0835,12087,030.8,045.5,0.215,752.0,01.17,0.508
2017-04-29 03:40:00,1831E-3,5C000400,-0724,0835,12103,030.8,045.5,0.215,752.0,01.17,0.508
2017-04-29 03:41:00,1747E-3,5C000400,-0724,0836,12072,030.7,045.5,0.215,752.0,01.17,0.508
2017-04-29 03:42:00,1816E-3,5C000400,-0724,0835,12199,030.6,045.5,0.215,752.0,01.17,0.508
2017-04-29 03:43:00,1706E-3,5C000400,-0724,0835,12024,030.5,045.5,0.215,752.0,01.17,0.508
2017-04-29 03:44:00,1690E-3,5C000400,-0724,0835,11941,030.3,045.5,0.216,752.0,01.17,0.508
2017-04-29 03:45:00,1701E-3,5C000400,-0724,0836,12001,030.1,045.5,0.216,752.0,01.17,0.508
2017-04-29 03:46:00,1761E-3,5C000400,-0724,0835,12132,029.9,045.5,0.216,752.0,01.17,0.508
2017-04-29 03:47:00,1704E-3,5C000400,-0724,0835,12116,029.8,045.5,0.216,752.1,01.17,0.508
2017-04-29 03:48:00,1783E-3,5C000400,-0724,0835,12105,029.6,045.5,0.216,752.0,01.17,0.508
2017-04-29 03:49:00,1846E-3,5C000400,-0724,0834,11925,029.5,045.5,0.216,752.1,01.17,0.508
2017-04-29 03:50:00,1691E-3,5C000400,-0724,0835,12107,029.4,045.5,0.217,752.1,01.17,0.508
2017-04-29 03:51:00,1834E-3,5C000400,-0724,0835,12057,029.3,045.5,0.217,752.1,01.17,0.508
2017-04-29 03:52:00,1713E-3,5C000400,-0724,0835,12040,029.3,045.5,0.217,752.0,01.17,0.508
2017-04-29 03:53:00,1783E-3,5C000400,-0724,0834,12133,029.2,045.5,0.217,752.1,01.17,0.508
2017-04-29 03:54:00,1605E-3,5C000400,-0724,0834,12087,029.1,045.5,0.217,752.1,01.17,0.508
2017-04-29 03:55:00,1722E-3,5C000400,-0724,0835,12023,029.0,045.5,0.217,752.1,01.17,0.508
2017-04-29 03:56:00,1671E-3,5C000400,-0724,0835,12133,029.0,045.5,0.218,752.1,01.17,0.508
2017-04-29 03:57:00,1694E-3,5C000400,-0724,0834,12092,029.0,045.5,0.218,752.1,01.17,0.508
2017-04-29 03:58:00,1737E-3,5C000400,-0724,0835,12106,029.1,045.5,0.218,752.1,01.17,0.508
2017-04-29 03:59:00,1675E-3,5C000400,-0724,0835,11984,029.1,045.5,0.218,752.1,01.17,0.508
2017-04-29 04:00:00,1733E-3,5C000400,-0724,0835,12106,029.2,045.5,0.218,752.1,01.17,0.508
2017-04-29 04:01:00,1804E-3,5C000400,-0724,0834,12026,029.3,045.5,0.218,752.0,01.17,0.508
2017-04-29 04:02:00,1695E-3,5C000400,-0724,0835,12105,029.3,045.5,0.218,752.1,01.17,0.508
2017-04-29 04:03:00,1733E-3,5C000400,-0724,0835,12018,029.4,045.5,0.218,752.0,01.17,0.508
2017-04-29 04:04:00,1819E-3,5C000400,-0724,0835,12192,029.4,045.5,0.218,752.0,01.17,0.508
2017-04-29 04:05:00,1699E-3,5C000400,-0724,0835,11919,029.5,045.5,0.218,752.0,01.17,0.508
2017-04-29 04:06:00,1786E-3,5C000400,-0724,0834,12163,029.6,045.5,0.218,752.1,01.17,0.508
2017-04-29 04:07:00,1763E-3,5C000400,-0724,0835,12191,029.6,045.5,0.218,752.0,01.17,0.508
2017-04-29 04:08:00,1779E-3,5C000400,-0724,0835,12054,029.7,045.5,0.218,752.1,01.17,0.508
2017-04-29 04:09:00,1801E-3,5C000400,-0724,0835,12103,029.7,045.5,0.218,752.0,01.17,0.508
2017-04-29 04:10:00,1816E-3,5C000400,-0724,0835,12074,029.8,045.5,0.218,752.0,01.17,0.508
2017-04-29 04:11:00,1775E-3,5C000400,-0724,0834,11996,029.8,045.5,0.218,752.0,01.17,0.508
2017-04-29 04:12:00,1767E-3,5C000400,-0724,0835,12067,029.9,045.5,0.218,751.9,01.17,0.508
2017-04-29 04:13:00,1751E-3,5C000400,-0724,0835,12087,029.9,045.5,0.218,752.0,01.17,0.508
2017-04-29 04:14:00,1726E-3,5C000400,-0724,0834,11905,030.0,045.5,0.217,752.1,01.17,0.508
2017-04-29 04:15:00,1714E-3,5C000400,-0724,0835,12057,030.0,045.5,0.217,752.0,01.17,0.508
2017-04-29 04:16:00,1672E-3,5C000400,-0724,0834,12087,030.1,045.5,0.217,752.0,01.17,0.508
2017-04-29 04:17:00,1703E-3,5C000400,-0724,0835,12183,030.1,045.5,0.217,752.0,01.17,0.508
2017-04-29 04:18:00,1753E-3,5C000400,-0724,0836,11941,030.2,045.5,0.217,752.0,01.17,0.508
2017-04-29 04:19:00,1741E-3,5C000400,-0724,0835,12051,030.2,045.5,0.217,752.0,01.17,0.508
2017-04-29 04:20:00,1738E-3,5C000400,-0724,0836,12150,030.3,045.5,0.217,752.0,01.17,0.508